Flag for Switzerland Weather past 2 weeks in Binningen, Basel-Land, Switzerland

Now
52 °F

Overcast.


Feels Like: 51 °F
Forecast: 34 / 49 °F
Wind: 5 mph from Southwest

Location: Bale-Mulhouse


UV Index: 0 (Low)

Visibility: 13 mi


Pressure: 29.90 "Hg

Humidity: 64%

Dew point: 40 °F

Location of BinningenLocation

Historic Weather in Binningen

°F

Binningen temperature yesterday

Maximum temperature yesterday: 63 °F (at 4:00 PM)
Minimum temperature yesterday: 29 °F (at 6:00 AM)
Average temperature yesterday: 45 °F

Past Weeks' High & Low Weather Summary

 TemperatureHumidityPressure
High73 °F (Apr 7, 7:00 PM)97% (Apr 6, 6:00 AM)30.37 "Hg (Apr 6, 6:00 AM)
Low27 °F (Apr 16, 7:00 AM)24% (Apr 17, 6:00 PM)29.64 "Hg (Apr 3, 6:00 PM)
Average54 °F61%30.07 "Hg
* Reported Apr 3 11:00 AM — Apr 18 11:00 AM, Binningen, Weather by CustomWeather, © 2014

Note: Actual official high and low records may vary slightly from our data, if they occured in-between our weather recording intervals... More about our weather records

Advertising

Historic Weather Conditions — Data for Previous 24 hours

 ConditionsComfort  
Time TempWeatherWind HumidityBarometerVisibility
11:00 AM
Apr 18
52 °FOvercast.5 mph64%29.90 "Hg12 mi
10:00 AM48 °FLight rain. Overcast.3 mph78%29.93 "Hg12 mi
9:00 AM46 °FLight rain. Overcast.8 mph77%29.93 "Hg5 mi
8:00 AM46 °FOvercast.3 mph67%29.93 "Hg25 mi
7:00 AM45 °FOvercast.3 mph65%29.92 "Hg25 mi
6:00 AM44 °FOvercast.3 mph65%29.93 "Hg25 mi
5:00 AM44 °FOvercast.5 mph62%29.95 "Hg19 mi
4:00 AM44 °FOvercast.6 mph61%29.97 "Hg28 mi
3:00 AM43 °FOvercast.5 mph62%29.98 "Hg31 mi
2:00 AM43 °FOvercast.3 mph61%29.99 "Hg31 mi
6:00 PM
Apr 17
63 °FPartly sunny.1 mph24%30.02 "Hg31 mi
5:00 PM63 °FPartly sunny.3 mph27%30.04 "Hg31 mi
4:00 PM63 °FScattered clouds.3 mph27%30.06 "Hg31 mi
3:00 PM60 °FScattered clouds.5 mph30%30.09 "Hg31 mi
2:00 PM59 °FPassing clouds.5 mph30%30.12 "Hg31 mi
1:00 PM57 °FPassing clouds.2 mph34%30.16 "Hg25 mi
12:00 PM54 °FPassing clouds.6 mph37%30.19 "Hg25 mi
Weather by CustomWeather, © 2014

See weather overview